Theta_e
333 326 326 323 321 319 319 319 319 318 317 317 316 316 314 313 313 312 311 311 310 309 309 309 309 309 310 309 308 308 308 309 313 318 332 343 343 343 343 341 341 334 331
325 325 325 323 322 319 319 320 320 318 318 317 317 317 316 315 314 313 313 313 311 310 311 311 311 312 312 312 312 311 309 308 308 308 313 327 342 342 341 340 340 342 338
325 325 325 324 322 320 319 320 320 319 318 318 318 317 317 316 315 315 315 317 317 317 317 314 313 313 312 311 311 313 313 311 308 308 308 310 331 343 341 340 340 340 344
325 325 325 324 322 320 319 320 320 319 318 318 318 318 318 317 317 316 316 318 320 323 323 321 323 322 323 323 316 313 316 316 314 309 308 307 312 340 342 341 340 340 342
328 325 324 323 322 320 319 320 320 319 318 318 318 318 318 319 318 318 317 319 320 321 322 322 323 324 325 324 322 318 320 321 320 316 310 307 307 332 337 334 338 340 340
334 328 325 324 323 321 320 320 320 319 319 319 319 319 319 320 320 319 318 318 322 324 321 321 327 331 332 332 329 327 330 330 326 323 318 308 307 327 330 328 334 337 341
334 334 333 327 323 322 320 320 320 320 319 319 319 320 320 320 321 320 319 317 319 327 329 323 322 324 330 331 330 329 330 331 330 327 325 313 312 323 325 330 336 335 337
332 333 334 333 326 323 321 320 320 320 320 319 319 319 320 320 321 321 320 318 317 322 325 323 322 322 322 323 328 330 331 328 326 321 327 321 319 325 325 326 326 328 331
334 334 334 334 333 325 322 320 320 320 320 319 319 319 320 320 320 320 320 320 318 324 327 327 327 326 322 320 320 321 323 322 323 327 321 327 325 325 326 329 328 324 322
334 334 335 335 335 331 326 323 320 320 320 320 319 319 319 319 320 320 320 321 321 326 327 328 328 327 324 318 315 315 317 320 321 324 326 321 330 330 328 329 328 328 322
333 333 334 334 335 335 331 329 324 321 320 320 320 319 320 320 320 321 321 321 323 327 329 329 329 327 319 318 318 317 316 318 317 318 322 323 327 333 331 330 329 329 329
330 330 333 335 335 335 335 333 330 325 322 321 321 320 320 320 321 322 322 323 325 328 331 331 330 329 328 328 328 319 317 321 323 325 322 321 320 331 333 331 331 330 329
330 330 330 331 334 335 335 335 334 331 326 323 322 321 321 321 321 322 323 325 326 330 333 333 330 329 329 328 326 325 328 329 329 329 327 318 326 328 331 331 330 331 331
330 330 329 329 330 333 335 335 335 335 335 329 323 322 322 322 321 321 324 326 325 330 333 332 331 330 329 329 328 328 328 328 328 330 330 322 329 330 330 330 330 331 329
330 330 329 329 328 329 333 335 336 336 337 334 328 323 322 323 322 321 324 329 325 331 332 331 331 331 330 329 328 328 328 328 327 329 330 330 329 329 330 330 331 330 329
330 330 329 329 328 327 330 332 334 337 338 337 335 327 324 325 324 323 328 332 328 332 334 333 332 331 331 330 329 329 328 327 327 327 327 328 330 329 330 331 331 329 328
329 330 329 329 327 327 328 331 334 336 337 338 339 338 338 337 331 330 335 331 330 334 334 333 332 331 330 331 330 329 328 326 328 326 327 328 329 329 330 329 330 328 327
328 329 329 328 327 328 329 330 331 334 337 338 339 339 340 339 337 337 335 331 330 334 333 333 332 331 331 330 330 329 327 326 325 324 326 328 328 330 330 330 328 327 327
328 329 328 327 327 328 328 328 331 336 338 340 340 340 341 340 339 336 333 332 331 329 330 329 330 332 331 329 329 328 327 327 327 325 327 328 329 329 329 328 328 326 325
328 328 328 327 328 329 329 329 335 339 342 342 342 342 341 339 336 333 332 333 331 330 331 330 329 329 329 328 328 328 327 327 327 326 326 327 327 328 328 328 328 327 322
327 328 328 328 327 329 329 333 337 342 343 343 342 341 336 335 333 332 333 332 332 333 331 329 327 326 327 328 328 327 327 326 327 327 325 327 327 328 328 328 327 327 329
328 328 328 327 327 329 330 334 341 344 344 342 340 339 336 334 332 333 332 333 331 331 330 330 327 327 326 328 328 327 327 327 325 325 325 325 327 327 326 327 327 327 330
327 327 327 327 328 331 332 337 342 344 343 343 341 339 338 332 332 333 333 333 331 329 329 328 327 327 327 327 327 326 325 324 324 324 323 324 326 325 327 326 325 326 329
327 329 330 331 332 335 337 342 344 343 343 342 341 337 334 332 332 332 332 331 332 329 326 325 325 326 327 326 326 326 325 324 325 326 323 323 325 326 327 326 326 327 327
329 330 333 334 335 339 343 345 345 343 342 338 332 332 332 333 333 332 331 331 329 325 324 324 324 324 324 324 324 324 323 324 324 326 325 323 326 326 327 327 327 328 327
331 334 335 336 343 345 345 344 342 339 335 334 333 334 333 332 332 332 330 328 327 325 324 323 324 324 324 324 324 323 323 324 323 324 325 324 326 325 326 325 327 328 324
Wind_Speed
19 21 18 16 13 10 9 10 9 8 8 7 6 6 5 4 3 1 2 3 4 5 5 6 7 8 8 9 10 11 13 16 16 15 14 11 8 7 5 5 5 8 7
21 20 18 17 16 12 11 11 11 10 8 7 6 5 4 4 3 2 1 1 3 3 4 4 4 5 6 7 8 9 10 12 14 16 16 14 11 9 8 8 9 8 7
19 20 19 20 18 14 13 12 12 10 9 7 6 5 3 3 3 2 2 1 2 3 3 3 3 3 5 7 7 7 8 9 11 13 15 16 13 11 10 10 11 11 9
15 18 20 19 17 15 14 13 13 12 11 8 6 4 2 1 2 2 3 2 2 3 4 4 5 5 6 7 8 7 7 8 9 9 11 14 16 14 12 10 12 11 10
11 16 17 18 18 18 16 16 15 15 13 11 8 6 3 0 2 4 4 4 3 4 5 6 7 7 7 7 8 8 7 7 7 7 8 11 15 16 15 13 10 11 12
10 11 14 17 19 20 19 19 18 18 16 14 12 9 6 3 3 3 5 5 5 5 6 7 7 9 11 10 8 11 9 8 7 7 7 10 15 16 16 13 11 10 13
10 11 12 18 21 22 22 22 22 21 19 17 15 13 10 7 6 4 5 6 7 7 7 7 9 13 14 15 14 13 13 12 10 9 7 9 15 13 12 10 10 8 9
11 11 16 18 23 24 24 25 25 25 22 20 19 17 14 11 10 7 7 8 9 8 8 9 11 13 15 17 17 16 16 16 15 14 11 11 16 12 12 11 11 11 8
16 17 20 21 23 28 26 26 28 27 25 23 22 20 18 15 13 11 9 10 10 8 7 8 10 11 13 15 18 19 20 19 17 14 12 13 15 13 13 12 13 15 16
18 21 25 26 28 29 31 29 30 29 29 27 26 24 22 20 17 15 12 12 11 9 7 6 7 10 12 14 14 16 18 19 20 18 15 14 18 15 15 16 12 11 13
24 22 26 28 32 31 33 32 33 32 31 30 30 28 26 25 21 17 14 14 12 9 6 6 7 9 9 10 12 13 13 16 15 17 17 14 19 19 16 19 17 13 10
14 16 23 28 33 32 36 35 35 36 37 36 35 33 32 28 24 20 17 15 12 9 9 8 7 7 6 7 10 11 10 7 8 8 13 19 19 21 19 17 18 15 12
21 18 20 21 30 33 37 39 37 38 40 40 40 37 35 30 26 23 19 17 13 10 12 13 11 9 8 9 5 4 6 6 8 9 9 16 19 19 18 17 17 15 11
22 25 24 22 21 28 35 39 40 40 37 40 42 40 37 33 29 24 21 19 15 13 13 13 13 11 11 11 10 9 8 8 10 9 7 13 18 14 20 20 19 15 14
26 25 28 29 27 23 30 36 40 41 36 35 38 40 37 35 30 24 22 20 17 17 17 15 15 13 14 14 14 14 13 14 14 14 11 12 16 19 19 20 19 14 13
32 29 30 29 26 20 23 27 31 40 38 34 31 33 32 30 29 26 21 18 19 20 17 16 17 18 17 16 17 16 17 18 17 19 20 17 16 18 16 18 17 15 12
29 29 33 29 21 20 21 24 32 37 40 36 29 26 24 21 21 21 17 18 20 20 20 19 20 21 22 21 22 20 18 15 18 15 19 19 16 15 19 17 17 15 15
38 33 22 27 21 22 24 26 28 35 39 36 30 25 22 20 19 18 18 18 18 22 23 21 21 21 22 26 26 22 20 18 15 15 14 16 18 13 18 17 16 17 17
33 24 26 25 23 22 24 27 29 32 39 34 28 23 22 20 20 16 19 14 16 22 23 22 22 22 22 23 24 20 19 19 18 17 16 18 19 17 14 12 11 8 16
29 28 32 27 18 20 26 28 31 34 33 29 25 22 21 20 21 16 16 16 17 18 19 20 22 22 23 20 20 18 19 20 18 19 17 17 19 20 19 13 12 10 12
29 20 26 22 19 20 28 31 34 36 30 27 23 24 20 19 18 13 15 16 16 17 20 19 21 19 20 18 17 17 19 21 19 17 17 17 18 20 22 19 14 12 11
24 21 26 25 18 26 29 32 37 35 27 24 22 21 15 13 15 15 16 15 16 19 21 22 19 20 18 18 18 16 13 18 19 19 19 21 19 18 17 18 18 16 12
28 24 25 25 20 28 29 31 31 33 26 22 19 17 16 15 15 17 15 16 18 20 21 18 17 17 14 13 15 13 6 9 8 14 21 20 21 20 19 17 16 20 15
26 21 22 24 24 25 25 26 27 31 27 24 18 18 16 16 17 16 16 20 19 19 14 11 10 10 11 12 14 17 17 5 3 3 13 20 19 20 18 17 16 18 20
19 20 23 21 20 21 21 21 22 22 20 18 15 16 19 19 20 18 19 19 17 11 9 7 7 8 10 11 15 15 16 19 17 7 2 19 21 19 17 16 17 20 19
21 22 20 18 20 19 19 19 20 19 18 17 18 17 16 15 15 16 18 17 11 7 5 5 5 6 7 9 11 14 16 15 18 19 12 14 21 20 18 19 16 19 19
Wind_Direction
170 176 177 173 178 174 168 159 151 146 135 119 115 110 110 114 119 155 234 244 245 242 232 232 240 247 241 242 237 238 242 242 238 233 232 231 206 206 214 212 194 177 159
155 169 178 181 183 182 177 168 163 160 148 142 132 125 113 100 86 67 56 291 263 245 240 240 242 252 264 260 248 241 238 241 241 237 233 231 227 217 205 214 211 203 176
163 171 179 186 186 187 184 179 175 171 168 164 157 151 137 109 91 71 45 359 267 263 248 230 237 260 273 274 268 259 253 243 239 238 233 228 221 216 211 206 214 214 202
169 178 183 187 189 192 192 189 186 184 185 182 180 177 153 62 22 12 8 348 270 248 250 253 254 259 268 275 274 262 260 264 255 238 227 221 215 210 210 209 219 215 208
183 187 189 192 194 197 199 198 197 197 195 195 198 200 195 248 341 343 335 326 295 260 259 262 266 277 283 274 271 256 255 264 269 261 233 215 207 203 210 217 219 218 215
202 193 205 207 205 203 204 205 205 205 203 204 206 211 214 225 280 319 317 305 289 274 263 268 270 275 278 272 265 255 254 256 262 263 249 215 196 197 215 226 221 223 220
207 219 223 225 217 210 211 211 212 211 210 211 212 217 223 234 252 284 305 300 288 275 271 280 266 255 255 259 264 257 255 251 259 256 243 212 192 194 199 212 224 227 227
230 236 235 230 229 219 219 219 218 216 216 217 218 220 225 235 248 259 286 297 288 279 276 283 275 267 264 262 258 258 248 253 262 252 238 216 197 203 199 221 238 243 249
217 228 235 238 237 225 226 228 225 222 221 223 225 225 228 233 243 252 267 287 286 277 282 289 281 279 272 266 262 257 255 255 254 245 233 222 208 206 205 214 244 259 258
220 229 227 230 232 234 227 232 232 229 227 226 230 231 232 236 241 250 259 277 276 270 281 290 307 300 270 269 265 262 255 251 246 245 241 222 214 215 210 214 228 251 252
238 237 233 234 232 236 236 230 234 234 232 230 232 233 234 237 242 249 258 271 268 276 279 310 328 315 281 274 269 264 255 251 250 246 237 225 217 221 229 222 220 230 247
238 252 237 235 233 239 246 229 234 232 232 232 233 234 236 237 241 248 255 267 263 270 274 279 304 318 309 298 281 252 246 246 244 250 247 231 226 222 235 227 215 224 236
269 265 258 249 233 238 246 237 236 233 234 234 236 237 239 238 238 243 252 256 254 259 270 275 283 288 293 305 271 215 220 242 255 255 263 222 213 215 225 218 212 224 235
259 265 260 264 247 237 239 242 241 238 238 237 239 238 238 239 238 239 248 256 259 258 265 269 266 275 268 287 273 260 270 271 271 248 245 223 219 223 232 227 222 223 232
264 266 256 264 255 245 240 240 243 242 240 239 242 240 241 241 241 241 248 250 260 260 256 265 263 261 265 274 271 262 259 266 265 263 257 248 243 235 235 224 219 226 236
277 265 260 258 253 255 248 248 255 245 242 242 242 239 241 244 245 242 245 252 253 253 254 263 272 273 267 265 270 271 266 262 260 256 263 265 247 242 227 227 228 229 237
275 283 268 247 254 259 258 261 246 249 242 243 240 233 234 237 234 228 236 244 247 251 259 265 266 271 265 263 268 270 254 245 248 255 255 252 237 237 230 235 236 233 237
274 273 252 236 251 249 256 259 260 251 243 244 241 236 229 227 222 222 238 249 256 251 257 259 262 259 262 262 263 260 250 241 235 246 249 247 236 233 229 228 241 247 240
266 260 235 245 257 249 257 265 257 248 239 241 239 233 229 229 214 219 240 257 266 258 260 267 270 266 272 266 256 253 244 241 234 243 249 238 231 224 220 212 219 246 226
258 253 248 245 254 255 257 254 243 237 235 233 228 225 230 213 204 232 243 259 272 257 263 275 280 280 276 263 254 245 242 237 238 245 251 236 232 219 214 209 228 242 230
249 259 240 241 255 256 249 235 229 225 214 212 211 209 197 217 234 234 245 271 274 274 280 280 284 281 271 253 247 248 238 233 239 240 246 231 219 219 228 230 222 230 230
246 251 240 247 255 250 238 231 221 211 202 203 206 221 231 251 222 240 263 273 277 280 284 286 278 269 264 247 242 240 238 241 242 242 239 229 226 218 220 215 220 228 234
244 250 249 242 247 237 229 220 212 209 209 207 213 229 246 229 241 253 257 267 270 283 284 277 269 261 259 245 235 222 198 224 222 239 234 222 216 207 207 217 219 227 236
242 235 235 233 223 219 218 211 205 200 205 211 221 231 225 228 239 246 262 269 274 284 278 275 268 254 241 234 223 222 228 216 217 247 221 217 215 207 211 218 221 228 223
225 227 215 213 212 205 200 199 194 196 198 197 196 197 219 226 227 244 259 275 276 275 267 269 263 249 242 230 223 228 236 238 238 246 203 207 209 215 228 224 226 220 227
205 200 204 201 185 179 178 178 181 181 183 189 201 200 210 218 230 252 267 269 258 257 265 269 265 254 244 236 230 229 229 230 228 225 233 210 208 205 216 216 212 218 233